Schneifelwetter: Wetterstation Hallschlag, 537 m . NN
Wetterdaten: Donnerstag, 09.11.2006
Datum Zeit Temp. A. Temp. 2 Feuchte A. Luftdruck Regen Wind Richtung Richtung Sonnenschein Helligkeit T Regen Taupunkt Windchill
09.11.2006 00:00 8,2 C 8,0 C 94 % 1020 hPa 0,0 l/m 27,5 km/h (4 Bft) W-SW45 250 0 min 0 lux 0,00 min 7,3 C -1,3 C
09.11.2006 00:15 8,3 C 8,1 C 94 % 1020 hPa 0,6 l/m 31,8 km/h (5 Bft) W22.5 260 0 min 0 lux 15,00 min 7,4 C -2,1 C
09.11.2006 00:30 8,4 C 8,2 C 94 % 1020 hPa 0,3 l/m 36,5 km/h (5 Bft) W22.5 260 0 min 0 lux 15,00 min 7,5 C -2,9 C
09.11.2006 00:45 8,4 C 8,3 C 94 % 1020 hPa 0,3 l/m 36,5 km/h (5 Bft) W22.5 260 0 min 0 lux 15,00 min 7,5 C -2,9 C
09.11.2006 01:00 8,5 C 8,3 C 94 % 1020 hPa 0,6 l/m 34,8 km/h (5 Bft) W22.5 260 0 min 0 lux 15,00 min 7,6 C -2,4 C
09.11.2006 01:15 8,5 C 8,4 C 94 % 1020 hPa 0,3 l/m 36,2 km/h (5 Bft) W22.5 260 0 min 0 lux 15,00 min 7,6 C -2,7 C
09.11.2006 01:30 8,5 C 8,3 C 94 % 1020 hPa 0,0 l/m 32,7 km/h (5 Bft) W-SW22.5 255 0 min 0 lux 0,00 min 7,6 C -2,0 C
09.11.2006 01:45 8,5 C 8,3 C 94 % 1020 hPa 0,3 l/m 37,3 km/h (5 Bft) W-SW22.5 255 0 min 0 lux 15,00 min 7,6 C -2,9 C
09.11.2006 02:00 8,5 C 8,5 C 94 % 1020 hPa 0,0 l/m 33,9 km/h (5 Bft) W22.5 260 0 min 0 lux 0,00 min 7,6 C -2,3 C
09.11.2006 02:15 8,6 C 8,5 C 95 % 1019 hPa 0,0 l/m 31,3 km/h (5 Bft) W-SW22.5 255 0 min 0 lux 0,00 min 7,8 C -1,6 C
09.11.2006 02:30 8,7 C 8,5 C 95 % 1020 hPa 0,0 l/m 31,8 km/h (5 Bft) W-SW22.5 255 0 min 0 lux 0,00 min 7,9 C -1,6 C
09.11.2006 02:45 8,7 C 8,6 C 95 % 1020 hPa 0,0 l/m 26,3 km/h (4 Bft) W22.5 260 0 min 0 lux 0,00 min 7,9 C -0,3 C
09.11.2006 03:00 9,0 C 8,9 C 95 % 1020 hPa 0,0 l/m 37,7 km/h (5 Bft) W-SW45 255 0 min 0 lux 0,00 min 8,2 C -2,2 C
09.11.2006 03:15 9,2 C 9,0 C 95 % 1020 hPa 0,3 l/m 32,9 km/h (5 Bft) W67.5 270 0 min 0 lux 15,00 min 8,4 C -1,1 C
09.11.2006 03:30 9,2 C 9,0 C 95 % 1020 hPa 0,3 l/m 38,3 km/h (5 Bft) W22.5 270 0 min 0 lux 15,00 min 8,4 C -2,0 C
09.11.2006 03:45 9,2 C 8,9 C 95 % 1020 hPa 0,6 l/m 35,9 km/h (5 Bft) W22.5 270 0 min 0 lux 15,00 min 8,4 C -1,6 C
09.11.2006 04:00 9,2 C 8,9 C 95 % 1020 hPa 0,0 l/m 33,0 km/h (5 Bft) W45 265 0 min 0 lux 0,00 min 8,4 C -1,1 C
09.11.2006 04:15 9,2 C 8,9 C 95 % 1020 hPa 0,3 l/m 29,1 km/h (5 Bft) W45 275 0 min 0 lux 15,00 min 8,4 C -0,3 C
09.11.2006 04:30 9,2 C 8,8 C 94 % 1020 hPa 0,0 l/m 37,4 km/h (5 Bft) W22.5 275 0 min 0 lux 0,00 min 8,3 C -1,9 C
09.11.2006 04:45 9,2 C 8,8 C 94 % 1020 hPa 0,0 l/m 28,4 km/h (4 Bft) W45 260 0 min 0 lux 0,00 min 8,3 C -0,1 C
09.11.2006 05:00 9,2 C 8,9 C 94 % 1020 hPa 0,0 l/m 35,7 km/h (5 Bft) W45 260 0 min 0 lux 0,00 min 8,3 C -1,6 C
09.11.2006 05:15 9,2 C 8,9 C 94 % 1020 hPa 0,0 l/m 35,1 km/h (5 Bft) W45 260 0 min 0 lux 0,00 min 8,3 C -1,5 C
09.11.2006 05:30 9,2 C 9,0 C 94 % 1020 hPa 0,3 l/m 33,2 km/h (5 Bft) W67.5 270 0 min 0 lux 15,00 min 8,3 C -1,1 C
09.11.2006 05:45 9,3 C 9,0 C 94 % 1020 hPa 0,0 l/m 39,5 km/h (6 Bft) W22.5 275 0 min 0 lux 0,00 min 8,4 C -2,1 C
09.11.2006 06:00 9,3 C 9,0 C 94 % 1021 hPa 0,0 l/m 28,5 km/h (4 Bft) W45 265 0 min 0 lux 0,00 min 8,4 C 0,0 C
09.11.2006 06:15 9,3 C 9,0 C 94 % 1021 hPa 0,3 l/m 28,5 km/h (4 Bft) W-NW67.5 290 0 min 0 lux 15,00 min 8,4 C 0,0 C
09.11.2006 06:30 8,7 C 8,3 C 91 % 1021 hPa 0,6 l/m 25,1 km/h (4 Bft) NW67.5 305 0 min 0 lux 15,00 min 7,3 C 0,0 C
09.11.2006 06:45 8,2 C 7,8 C 91 % 1022 hPa 0,3 l/m 24,0 km/h (4 Bft) W-NW67.5 290 0 min 0 lux 15,00 min 6,8 C -0,3 C
09.11.2006 07:00 7,8 C 7,4 C 92 % 1022 hPa 0,0 l/m 24,6 km/h (4 Bft) W-NW45 290 0 min 0 lux 0,00 min 6,6 C -1,0 C
09.11.2006 07:15 7,6 C 7,3 C 92 % 1022 hPa 0,0 l/m 19,4 km/h (3 Bft) W-NW45 285 0 min 0 lux 0,00 min 6,4 C 0,4 C
09.11.2006 07:30 7,6 C 7,2 C 92 % 1022 hPa 0,3 l/m 20,5 km/h (4 Bft) W45 275 0 min 114 lux 15,00 min 6,4 C 0,0 C
09.11.2006 07:45 7,6 C 7,2 C 92 % 1022 hPa 0,0 l/m 18,6 km/h (3 Bft) W-NW45 285 0 min 323 lux 0,00 min 6,4 C 0,7 C
09.11.2006 08:00 7,5 C 7,0 C 91 % 1023 hPa 0,0 l/m 22,6 km/h (4 Bft) W-NW22.5 285 0 min 914 lux 0,00 min 6,1 C -0,8 C
09.11.2006 08:15 7,4 C 6,9 C 91 % 1023 hPa 0,0 l/m 21,5 km/h (4 Bft) W45 275 0 min 1,90 klux 0,00 min 6,0 C -0,6 C
09.11.2006 08:30 7,4 C 7,0 C 91 % 1023 hPa 0,0 l/m 26,8 km/h (4 Bft) W45 280 0 min 2,52 klux 0,00 min 6,0 C -2,2 C
09.11.2006 08:45 7,3 C 6,6 C 91 % 1023 hPa 0,0 l/m 12,5 km/h (3 Bft) W45 275 0 min 2,46 klux 0,00 min 5,9 C 3,1 C
09.11.2006 09:00 7,2 C 6,6 C 91 % 1023 hPa 0,0 l/m 14,3 km/h (3 Bft) W22.5 270 0 min 2,79 klux 0,00 min 5,8 C 2,1 C
09.11.2006 09:15 7,3 C 6,7 C 91 % 1024 hPa 0,0 l/m 15,8 km/h (3 Bft) W-NW45 285 0 min 7,12 klux 0,00 min 5,9 C 1,5 C
09.11.2006 09:30 7,5 C 6,7 C 90 % 1024 hPa 0,0 l/m 19,7 km/h (3 Bft) W22.5 275 0 min 8,70 klux 0,00 min 6,0 C 0,2 C
09.11.2006 09:45 7,6 C 7,1 C 88 % 1024 hPa 0,0 l/m 19,7 km/h (3 Bft) W-NW22.5 290 0 min 11,9 klux 0,00 min 5,7 C 0,3 C
09.11.2006 10:00 7,6 C 7,2 C 88 % 1024 hPa 0,0 l/m 12,9 km/h (3 Bft) W45 280 0 min 11,3 klux 0,00 min 5,7 C 3,3 C
09.11.2006 10:15 7,2 C 6,8 C 85 % 1024 hPa 0,0 l/m 24,7 km/h (4 Bft) W-NW67.5 290 0 min 7,64 klux 0,00 min 4,9 C -1,9 C
09.11.2006 10:30 7,0 C 6,7 C 87 % 1025 hPa 0,0 l/m 18,1 km/h (3 Bft) W-NW45 285 0 min 26,3 klux 0,00 min 5,0 C 0,1 C
09.11.2006 10:45 6,8 C 6,7 C 85 % 1025 hPa 0,0 l/m 23,1 km/h (4 Bft) W-NW45 290 0 min 14,1 klux 0,00 min 4,5 C -1,9 C
09.11.2006 11:00 7,3 C 7,2 C 85 % 1025 hPa 0,0 l/m 14,8 km/h (3 Bft) W-NW67.5 285 0 min 23,6 klux 0,00 min 4,9 C 2,0 C
09.11.2006 11:15 7,7 C 7,8 C 84 % 1025 hPa 0,0 l/m 18,5 km/h (3 Bft) W-NW67.5 285 0 min 20,8 klux 0,00 min 5,2 C 0,9 C
09.11.2006 11:30 7,9 C 8,1 C 82 % 1025 hPa 0,0 l/m 29,0 km/h (5 Bft) W-NW67.5 290 0 min 19,2 klux 0,00 min 5,0 C -2,1 C
09.11.2006 11:45 7,5 C 7,4 C 81 % 1025 hPa 0,0 l/m 26,3 km/h (4 Bft) W-NW67.5 295 0 min 12,7 klux 0,00 min 4,5 C -1,9 C
09.11.2006 12:00 8,1 C 9,9 C 82 % 1026 hPa 0,0 l/m 24,3 km/h (4 Bft) W67.5 270 15 min 75,7 klux 0,00 min 5,2 C -0,5 C
09.11.2006 12:15 8,3 C 10,1 C 76 % 1026 hPa 0,0 l/m 23,3 km/h (4 Bft) W-NW45 290 15 min 61,4 klux 0,00 min 4,3 C 0,0 C
09.11.2006 12:31 8,6 C 11,0 C 78 % 1026 hPa 0,0 l/m 32,0 km/h (5 Bft) W45 275 16 min 67,3 klux 0,00 min 5,0 C -1,7 C
09.11.2006 12:45 9,2 C 12,5 C 72 % 1026 hPa 0,0 l/m 24,5 km/h (4 Bft) W67.5 270 14 min 74,0 klux 0,00 min 4,4 C 0,9 C
09.11.2006 13:00 8,4 C 10,5 C 73 % 1026 hPa 0,0 l/m 33,0 km/h (5 Bft) W45 275 0 min 40,4 klux 0,00 min 3,8 C -2,2 C
09.11.2006 13:15 8,0 C 9,0 C 73 % 1026 hPa 0,0 l/m 26,8 km/h (4 Bft) W45 280 0 min 19,2 klux 0,00 min 3,5 C -1,4 C
09.11.2006 13:30 7,2 C 7,6 C 74 % 1026 hPa 0,0 l/m 22,4 km/h (4 Bft) W22.5 280 0 min 16,5 klux 0,00 min 2,9 C -1,2 C
09.11.2006 13:45 6,7 C 6,8 C 76 % 1026 hPa 0,0 l/m 18,2 km/h (3 Bft) W45 270 0 min 10,8 klux 0,00 min 2,8 C -0,3 C
09.11.2006 14:00 6,5 C 6,4 C 77 % 1026 hPa 0,0 l/m 17,3 km/h (3 Bft) W-NW45 300 0 min 11,1 klux 0,00 min 2,8 C -0,2 C
09.11.2006 14:15 6,7 C 7,5 C 78 % 1026 hPa 0,0 l/m 14,9 km/h (3 Bft) W-NW22.5 290 15 min 50,9 klux 0,00 min 3,1 C 1,2 C
09.11.2006 14:30 7,6 C 9,6 C 75 % 1026 hPa 0,0 l/m 29,7 km/h (5 Bft) W45 275 15 min 56,0 klux 0,00 min 3,5 C -2,6 C
09.11.2006 14:45 8,7 C 11,7 C 71 % 1026 hPa 0,0 l/m 23,1 km/h (4 Bft) W45 280 0 min 44,0 klux 0,00 min 3,7 C 0,6 C
09.11.2006 15:00 8,0 C 10,5 C 68 % 1026 hPa 0,0 l/m 25,4 km/h (4 Bft) W45 280 0 min 32,1 klux 0,00 min 2,5 C -1,0 C
09.11.2006 15:15 7,8 C 11,0 C 70 % 1027 hPa 0,0 l/m 27,1 km/h (4 Bft) W45 280 0 min 23,4 klux 0,00 min 2,7 C -1,7 C
09.11.2006 15:30 7,8 C 11,4 C 72 % 1027 hPa 0,0 l/m 24,6 km/h (4 Bft) W45 280 0 min 18,4 klux 0,00 min 3,1 C -1,0 C
09.11.2006 15:45 7,6 C 11,0 C 73 % 1027 hPa 0,0 l/m 26,4 km/h (4 Bft) W22.5 280 0 min 15,7 klux 0,00 min 3,1 C -1,8 C
09.11.2006 16:00 7,2 C 8,9 C 74 % 1027 hPa 0,0 l/m 18,9 km/h (3 Bft) W45 265 0 min 7,96 klux 0,00 min 2,9 C 0,1 C
09.11.2006 16:15 6,6 C 7,9 C 75 % 1027 hPa 0,0 l/m 21,2 km/h (4 Bft) W45 275 0 min 4,91 klux 0,00 min 2,5 C -1,5 C
09.11.2006 16:30 6,3 C 6,8 C 76 % 1027 hPa 0,0 l/m 16,3 km/h (3 Bft) W-NW45 285 0 min 4,75 klux 0,00 min 2,4 C 0,0 C
09.11.2006 16:45 6,1 C 6,2 C 77 % 1027 hPa 0,0 l/m 13,8 km/h (3 Bft) W22.5 270 0 min 3,90 klux 0,00 min 2,4 C 1,0 C
09.11.2006 17:00 5,6 C 5,3 C 78 % 1027 hPa 0,0 l/m 21,0 km/h (4 Bft) W22.5 275 0 min 1,22 klux 0,00 min 2,1 C -2,8 C
09.11.2006 17:15 5,2 C 4,1 C 79 % 1027 hPa 0,0 l/m 14,9 km/h (3 Bft) W45 270 0 min 378 lux 0,00 min 1,9 C -0,6 C
09.11.2006 17:31 4,5 C 3,4 C 80 % 1028 hPa 0,0 l/m 12,5 km/h (3 Bft) W22.5 280 0 min 67 lux 0,00 min 1,4 C -0,1 C
09.11.2006 17:45 4,2 C 2,8 C 82 % 1028 hPa 0,0 l/m 13,0 km/h (3 Bft) W45 275 0 min 9 lux 0,00 min 1,4 C -0,8 C
09.11.2006 18:00 4,0 C 2,7 C 83 % 1028 hPa 0,0 l/m 10,5 km/h (2 Bft) W45 280 0 min 0 lux 0,00 min 1,4 C 0,6 C
09.11.2006 18:15 3,8 C 2,3 C 84 % 1028 hPa 0,0 l/m 12,6 km/h (3 Bft) W45 275 0 min 0 lux 0,00 min 1,4 C -1,0 C
09.11.2006 18:30 3,7 C 2,4 C 85 % 1028 hPa 0,0 l/m 9,6 km/h (2 Bft) W22.5 275 0 min 0 lux 0,00 min 1,4 C 0,9 C
09.11.2006 18:45 3,6 C 2,1 C 85 % 1028 hPa 0,0 l/m 9,0 km/h (2 Bft) W22.5 275 0 min 0 lux 0,00 min 1,3 C 1,3 C
09.11.2006 19:00 3,7 C 2,7 C 87 % 1029 hPa 0,0 l/m 10,6 km/h (2 Bft) W22.5 265 0 min 0 lux 0,00 min 1,7 C 0,2 C
09.11.2006 19:15 4,1 C 3,3 C 87 % 1029 hPa 0,0 l/m 12,0 km/h (2 Bft) W45 280 0 min 0 lux 0,00 min 2,1 C -0,3 C
09.11.2006 19:30 4,3 C 3,5 C 87 % 1029 hPa 0,0 l/m 14,0 km/h (3 Bft) W45 270 0 min 0 lux 0,00 min 2,3 C -1,2 C
09.11.2006 19:45 4,2 C 3,1 C 86 % 1029 hPa 0,0 l/m 10,9 km/h (2 Bft) W22.5 275 0 min 0 lux 0,00 min 2,1 C 0,6 C
09.11.2006 20:00 3,9 C 2,9 C 87 % 1029 hPa 0,0 l/m 10,1 km/h (2 Bft) W22.5 270 0 min 0 lux 0,00 min 1,9 C 0,8 C
09.11.2006 20:15 3,9 C 3,1 C 87 % 1029 hPa 0,0 l/m 10,1 km/h (2 Bft) W22.5 265 0 min 0 lux 0,00 min 1,9 C 0,8 C
09.11.2006 20:30 4,0 C 3,0 C 88 % 1029 hPa 0,0 l/m 11,8 km/h (2 Bft) W-NW45 295 0 min 0 lux 0,00 min 2,2 C -0,3 C
09.11.2006 20:45 3,9 C 3,0 C 87 % 1029 hPa 0,0 l/m 8,6 km/h (2 Bft) W67.5 275 0 min 0 lux 0,00 min 1,9 C 1,9 C
09.11.2006 21:00 3,9 C 3,0 C 87 % 1029 hPa 0,0 l/m 11,9 km/h (2 Bft) W-NW22.5 300 0 min 0 lux 0,00 min 1,9 C -0,4 C
09.11.2006 21:15 3,9 C 2,8 C 87 % 1029 hPa 0,0 l/m 3,1 km/h (1 Bft) NW45 320 0 min 0 lux 0,00 min 1,9 C 3,9 C
09.11.2006 21:30 3,7 C 2,5 C 88 % 1029 hPa 0,0 l/m 12,6 km/h (3 Bft) W45 275 0 min 0 lux 0,00 min 1,9 C -1,1 C
09.11.2006 21:45 3,7 C 2,6 C 88 % 1030 hPa 0,0 l/m 2,8 km/h (1 Bft) W22.5 275 0 min 0 lux 0,00 min 1,9 C 3,7 C
09.11.2006 22:00 3,8 C 2,6 C 88 % 1030 hPa 0,0 l/m 12,0 km/h (2 Bft) W-NW45 300 0 min 0 lux 0,00 min 2,0 C -0,6 C
09.11.2006 22:15 3,6 C 2,1 C 87 % 1030 hPa 0,0 l/m 12,3 km/h (3 Bft) W-NW45 285 0 min 0 lux 0,00 min 1,6 C -1,0 C
09.11.2006 22:30 3,1 C 1,7 C 87 % 1030 hPa 0,0 l/m 8,1 km/h (2 Bft) W22.5 270 0 min 0 lux 0,00 min 1,2 C 1,5 C
09.11.2006 22:45 2,8 C 1,3 C 88 % 1030 hPa 0,0 l/m 7,4 km/h (2 Bft) W-SW22.5 255 0 min 0 lux 0,00 min 1,0 C 1,8 C
09.11.2006 23:00 2,5 C 1,1 C 88 % 1030 hPa 0,0 l/m 9,8 km/h (2 Bft) W22.5 275 0 min 0 lux 0,00 min 0,7 C -0,5 C
09.11.2006 23:15 2,2 C 0,5 C 89 % 1030 hPa 0,0 l/m 4,4 km/h (1 Bft) W22.5 280 0 min 0 lux 0,00 min 0,6 C 2,2 C
09.11.2006 23:30 1,6 C 0,1 C 89 % 1031 hPa 0,0 l/m 3,4 km/h (1 Bft) W-NW22.5 285 0 min 0 lux 0,00 min -0,0 C 1,6 C
09.11.2006 23:45 1,5 C -0,2 C 90 % 1030 hPa 0,0 l/m 0,1 km/h (0 Bft) W-NW22.5 285 0 min 0 lux 0,00 min 0,0 C 1,5 C
_ Min-Zeit 23:45 23:45 15:00 02:15 - 23:45 - - - - - 23:30 00:30
Minimum _ 1,5 C -0,2 C 68 % 1019 hPa - 0,1 km/h (0 Bft) - - - - - -0,0 C -2,9 C
_ Max-Zeit 05:45 12:45 02:15 23:30 00:15 05:45 - - 12:31 12:00 00:15 03:15 21:15
Maximum _ 9,3 C 12,5 C 95 % 1031 hPa 0,6 l/m 39,5 km/h
W (6 Bft)
- - 16 min 75,7 klux 15,00 min 8,4 C 3,9 C
Durchschnitt _ 6,8 C 6,7 C 86 % 1025 hPa #5,5 l/m 21,5 km/h (4 Bft) W - #1:30 h 8,48 klux #3:45 h 4,6 C -0,4 C